Time,TemperatureF,DewpointF,PressureIn,WindDirection,WindDirectionDegrees,WindSpeedMPH,WindSpeedGustMPH,Humidity,HourlyPrecipIn,Conditions,Clouds,dailyrainin,SoftwareType,DateUTC
2013-08-30 00:01:00,67.6,60.1,29.98,WSW,253,0.0,0.0,77,0.00,,SKC,0.00,VWS V14.01,2013-08-30 07:01:00,
2013-08-30 00:10:00,67.4,60.0,29.98,WSW,253,0.0,0.0,77,0.00,,SKC,0.00,VWS V14.01,2013-08-30 07:10:00,
2013-08-30 00:20:00,67.3,59.8,29.97,WSW,253,0.0,0.0,77,0.00,,SKC,0.00,VWS V14.01,2013-08-30 07:20:00,
2013-08-30 00:25:00,67.2,60.1,29.97,WSW,253,0.0,0.0,78,0.00,,SKC,0.00,VWS V14.01,2013-08-30 07:25:00,
2013-08-30 00:35:00,66.7,59.6,29.97,WSW,253,0.0,0.0,78,0.00,,SKC,0.00,VWS V14.01,2013-08-30 07:35:00,
2013-08-30 00:40:00,66.5,59.4,29.97,WSW,253,0.0,0.0,78,0.00,,SKC,0.00,VWS V14.01,2013-08-30 07:40:00,
2013-08-30 00:50:00,66.0,59.7,29.97,WSW,253,0.0,0.0,80,0.00,,SKC,0.00,VWS V14.01,2013-08-30 07:50:00,
2013-08-30 00:55:00,65.7,59.4,29.97,WSW,253,0.0,0.0,80,0.00,,SKC,0.00,VWS V14.01,2013-08-30 07:55:00,
2013-08-30 01:00:00,65.4,59.4,29.98,WSW,253,0.0,0.0,81,0.00,,SKC,0.00,VWS V14.01,2013-08-30 08:00:00,
2013-08-30 01:10:00,65.0,59.0,29.98,WSW,253,0.0,0.0,81,0.00,,SKC,0.00,VWS V14.01,2013-08-30 08:10:00,
2013-08-30 01:15:00,64.8,58.8,29.98,WSW,253,0.0,0.0,81,0.00,,SKC,0.00,VWS V14.01,2013-08-30 08:15:00,
2013-08-30 01:25:00,64.5,58.5,29.97,WSW,253,0.0,0.0,81,0.00,,SKC,0.00,VWS V14.01,2013-08-30 08:25:00,
2013-08-30 01:30:00,64.5,58.9,29.97,WSW,253,0.0,0.0,82,0.00,,SKC,0.00,VWS V14.01,2013-08-30 08:30:00,
2013-08-30 01:40:00,64.4,59.1,29.97,WSW,253,0.0,0.0,83,0.00,,SKC,0.00,VWS V14.01,2013-08-30 08:40:00,
2013-08-30 01:45:00,64.2,58.9,29.97,WSW,253,0.0,0.0,83,0.00,,SKC,0.00,VWS V14.01,2013-08-30 08:45:00,
2013-08-30 01:55:00,64.1,58.8,29.97,WSW,253,0.0,0.0,83,0.00,,SKC,0.00,VWS V14.01,2013-08-30 08:55:00,
2013-08-30 02:00:00,64.0,59.1,29.97,WSW,253,0.0,0.0,84,0.00,,SKC,0.00,VWS V14.01,2013-08-30 09:00:00,
2013-08-30 02:05:00,64.0,59.1,29.97,WSW,253,0.0,0.0,84,0.00,,SKC,0.00,VWS V14.01,2013-08-30 09:05:00,
2013-08-30 02:10:00,64.0,59.1,29.97,WSW,253,0.0,0.0,84,0.00,,SKC,0.00,VWS V14.01,2013-08-30 09:10:00,
2013-08-30 02:20:00,63.8,58.9,29.97,WSW,253,0.0,0.0,84,0.00,,SKC,0.00,VWS V14.01,2013-08-30 09:20:00,
2013-08-30 02:25:00,63.7,59.1,29.97,WSW,253,0.0,0.0,85,0.00,,SKC,0.00,VWS V14.01,2013-08-30 09:25:00,
2013-08-30 02:35:00,63.7,58.8,29.97,WSW,253,0.0,0.0,84,0.00,,SKC,0.00,VWS V14.01,2013-08-30 09:35:00,
2013-08-30 02:45:00,63.5,58.6,29.97,WSW,253,0.0,0.0,84,0.00,,SKC,0.00,VWS V14.01,2013-08-30 09:45:00,
2013-08-30 02:50:00,63.5,58.6,29.96,WSW,253,0.0,0.0,84,0.00,,SKC,0.00,VWS V14.01,2013-08-30 09:50:00,
2013-08-30 03:00:00,63.4,58.8,29.96,WSW,253,0.0,0.0,85,0.00,,SKC,0.00,VWS V14.01,2013-08-30 10:00:00,
2013-08-30 03:10:00,63.2,58.6,29.96,WSW,253,0.0,0.0,85,0.00,,SKC,0.00,VWS V14.01,2013-08-30 10:10:00,
2013-08-30 03:20:00,63.1,58.5,29.96,WSW,253,0.0,0.0,85,0.00,,SKC,0.00,VWS V14.01,2013-08-30 10:20:00,
2013-08-30 03:30:00,63.0,58.4,29.96,WSW,253,0.0,0.0,85,0.00,,SKC,0.00,VWS V14.01,2013-08-30 10:30:00,
2013-08-30 03:35:00,62.9,58.3,29.96,WSW,253,0.0,0.0,85,0.00,,SKC,0.00,VWS V14.01,2013-08-30 10:35:00,
2013-08-30 03:45:00,62.7,58.1,29.96,WSW,253,0.0,0.0,85,0.00,,SKC,0.00,VWS V14.01,2013-08-30 10:45:00,
2013-08-30 03:50:00,62.7,58.5,29.96,WSW,253,0.0,0.0,86,0.00,,SKC,0.00,VWS V14.01,2013-08-30 10:50:00,
2013-08-30 04:00:00,62.4,58.2,29.96,WSW,253,0.0,0.0,86,0.00,,SKC,0.00,VWS V14.01,2013-08-30 11:00:00,
2013-08-30 04:05:00,62.4,58.2,29.96,WSW,253,0.0,0.0,86,0.00,,SKC,0.00,VWS V14.01,2013-08-30 11:05:00,
2013-08-30 04:10:00,62.3,58.1,29.96,WSW,253,0.0,0.0,86,0.00,,SKC,0.00,VWS V14.01,2013-08-30 11:10:00,
2013-08-30 04:20:00,62.0,57.8,29.96,WSW,253,0.0,0.0,86,0.00,,SKC,0.00,VWS V14.01,2013-08-30 11:20:00,
2013-08-30 04:25:00,61.9,57.7,29.95,WSW,253,0.0,0.0,86,0.00,,SKC,0.00,VWS V14.01,2013-08-30 11:25:00,
2013-08-30 04:30:00,61.8,57.6,29.95,WSW,253,0.0,0.0,86,0.00,,SKC,0.00,VWS V14.01,2013-08-30 11:30:00,
2013-08-30 04:40:00,61.7,57.5,29.96,WSW,253,0.0,0.0,86,0.00,,SKC,0.00,VWS V14.01,2013-08-30 11:40:00,
2013-08-30 04:45:00,61.6,57.7,29.95,WSW,253,0.0,0.0,87,0.00,,SKC,0.00,VWS V14.01,2013-08-30 11:45:00,
2013-08-30 04:50:00,61.6,57.7,29.95,WSW,253,0.0,0.0,87,0.00,,SKC,0.00,VWS V14.01,2013-08-30 11:50:00,
2013-08-30 05:00:00,61.6,57.7,29.96,WSW,253,0.0,0.0,87,0.00,,SKC,0.00,VWS V14.01,2013-08-30 12:00:00,
2013-08-30 05:05:00,61.6,57.7,29.96,WSW,253,0.0,0.0,87,0.00,,SKC,0.00,VWS V14.01,2013-08-30 12:05:00,
2013-08-30 05:10:00,61.6,58.0,29.96,WSW,253,0.0,0.0,88,0.00,,SKC,0.00,VWS V14.01,2013-08-30 12:10:00,
2013-08-30 05:15:00,61.6,58.0,29.96,WSW,253,0.0,0.0,88,0.00,,SKC,0.00,VWS V14.01,2013-08-30 12:15:00,
2013-08-30 05:25:00,61.5,57.6,29.96,WSW,253,0.0,0.0,87,0.00,,SKC,0.00,VWS V14.01,2013-08-30 12:25:00,
2013-08-30 05:35:00,61.5,57.9,29.96,WSW,253,0.0,0.0,88,0.00,,SKC,0.00,VWS V14.01,2013-08-30 12:35:00,
2013-08-30 05:40:00,61.5,57.6,29.96,WSW,253,0.0,0.0,87,0.00,,SKC,0.00,VWS V14.01,2013-08-30 12:40:00,
2013-08-30 05:50:00,61.1,57.2,29.96,WSW,253,0.0,0.0,87,0.00,,SKC,0.00,VWS V14.01,2013-08-30 12:50:00,
2013-08-30 05:55:00,61.0,57.1,29.96,WSW,253,0.0,0.0,87,0.00,,SKC,0.00,VWS V14.01,2013-08-30 12:55:00,
2013-08-30 06:00:00,61.0,57.4,29.97,WSW,253,0.0,0.0,88,0.00,,SKC,0.00,VWS V14.01,2013-08-30 13:00:00,
2013-08-30 06:10:00,60.9,57.0,29.97,WSW,253,0.0,0.0,87,0.00,,SKC,0.00,VWS V14.01,2013-08-30 13:10:00,
2013-08-30 06:15:00,60.8,57.2,29.97,WSW,253,0.0,0.0,88,0.00,,SKC,0.00,VWS V14.01,2013-08-30 13:15:00,
2013-08-30 06:20:00,60.8,57.2,29.97,WSW,253,0.0,0.0,88,0.00,,SKC,0.00,VWS V14.01,2013-08-30 13:20:00,
2013-08-30 06:25:00,60.7,56.8,29.97,WSW,253,0.0,0.0,87,0.00,,SKC,0.00,VWS V14.01,2013-08-30 13:25:00,
2013-08-30 06:35:00,60.8,57.2,29.98,WSW,253,0.0,0.0,88,0.00,,SKC,0.00,VWS V14.01,2013-08-30 13:35:00,
2013-08-30 06:40:00,60.7,57.1,29.98,WSW,253,0.0,0.0,88,0.00,,SKC,0.00,VWS V14.01,2013-08-30 13:40:00,
2013-08-30 06:45:00,60.6,57.0,29.98,WSW,253,0.0,0.0,88,0.00,,SKC,0.00,VWS V14.01,2013-08-30 13:45:00,
2013-08-30 06:50:00,60.6,57.0,29.98,WSW,253,0.0,0.0,88,0.00,,SKC,0.00,VWS V14.01,2013-08-30 13:50:00,
2013-08-30 07:00:00,60.7,57.4,29.98,WSW,253,0.0,0.0,89,0.00,,SKC,0.00,VWS V14.01,2013-08-30 14:00:00,
2013-08-30 07:05:00,60.8,57.2,29.99,WSW,253,0.0,0.0,88,0.00,,SKC,0.00,VWS V14.01,2013-08-30 14:05:00,
2013-08-30 07:10:00,60.9,57.6,29.99,WSW,253,0.0,0.0,89,0.00,,SKC,0.00,VWS V14.01,2013-08-30 14:10:00,
2013-08-30 07:20:00,61.3,57.7,29.99,WSW,253,0.0,0.0,88,0.00,,SKC,0.00,VWS V14.01,2013-08-30 14:20:00,
2013-08-30 07:25:00,61.4,57.8,29.98,WSW,253,0.0,0.0,88,0.00,,SKC,0.00,VWS V14.01,2013-08-30 14:25:00,
2013-08-30 07:30:00,61.8,58.2,29.99,WSW,253,0.0,0.0,88,0.00,,SKC,0.00,VWS V14.01,2013-08-30 14:30:00,
2013-08-30 07:35:00,62.3,58.7,29.99,WSW,253,0.0,0.0,88,0.00,,SKC,0.00,VWS V14.01,2013-08-30 14:35:00,
2013-08-30 07:45:00,63.2,59.6,29.98,WSW,253,0.0,0.0,88,0.00,,SKC,0.00,VWS V14.01,2013-08-30 14:45:00,
2013-08-30 07:50:00,63.4,59.5,29.98,WSW,253,0.0,0.0,87,0.00,,SKC,0.00,VWS V14.01,2013-08-30 14:50:00,
2013-08-30 07:55:00,63.9,60.0,29.99,WSW,253,0.0,0.0,87,0.00,,SKC,0.00,VWS V14.01,2013-08-30 14:55:00,
2013-08-30 08:00:00,64.3,60.0,29.99,WSW,253,0.0,0.0,86,0.00,,SKC,0.00,VWS V14.01,2013-08-30 15:00:00,
2013-08-30 08:05:00,64.7,60.1,29.99,WSW,253,0.0,0.0,85,0.00,,SKC,0.00,VWS V14.01,2013-08-30 15:05:00,
2013-08-30 08:15:00,65.6,60.3,29.99,WSW,253,0.0,0.0,83,0.00,,SKC,0.00,VWS V14.01,2013-08-30 15:15:00,
2013-08-30 08:25:00,66.5,60.5,29.99,WSW,253,0.0,0.0,81,0.00,,SKC,0.00,VWS V14.01,2013-08-30 15:25:00,
2013-08-30 08:30:00,66.9,60.5,29.99,WSW,253,0.0,0.0,80,0.00,,SKC,0.00,VWS V14.01,2013-08-30 15:30:00,
2013-08-30 08:35:00,67.3,60.6,29.99,WSW,253,0.0,0.0,79,0.00,,SKC,0.00,VWS V14.01,2013-08-30 15:35:00,
2013-08-30 08:40:00,67.9,61.2,29.99,WSW,253,1.0,2.0,79,0.00,,SKC,0.00,VWS V14.01,2013-08-30 15:40:00,
2013-08-30 08:45:00,68.6,61.1,29.99,WSW,253,0.0,1.0,77,0.00,,SKC,0.00,VWS V14.01,2013-08-30 15:45:00,
2013-08-30 08:50:00,69.2,61.0,29.99,WSW,253,0.0,3.0,75,0.00,,SKC,0.00,VWS V14.01,2013-08-30 15:50:00,
2013-08-30 08:55:00,69.6,61.0,29.99,WSW,253,2.0,4.0,74,0.00,,SKC,0.00,VWS V14.01,2013-08-30 15:55:00,
2013-08-30 09:00:00,70.1,61.4,29.99,NW,306,1.0,5.0,74,0.00,,SKC,0.00,VWS V14.01,2013-08-30 16:00:00,
2013-08-30 09:05:00,70.8,62.1,29.99,South,179,4.0,4.0,74,0.00,,SKC,0.00,VWS V14.01,2013-08-30 16:05:00,
2013-08-30 09:10:00,71.6,61.3,29.99,WSW,256,0.0,6.0,70,0.00,,SKC,0.00,VWS V14.01,2013-08-30 16:10:00,
2013-08-30 09:15:00,72.1,61.8,29.99,WNW,288,0.0,6.0,70,0.00,,SKC,0.00,VWS V14.01,2013-08-30 16:15:00,
2013-08-30 09:20:00,72.4,61.7,30.00,West,260,0.0,5.0,69,0.00,,SKC,0.00,VWS V14.01,2013-08-30 16:20:00,
2013-08-30 09:25:00,72.5,61.8,29.99,WNW,291,1.0,5.0,69,0.00,,SKC,0.00,VWS V14.01,2013-08-30 16:25:00,
2013-08-30 09:30:00,72.8,61.6,29.99,WNW,286,2.0,5.0,68,0.00,,SKC,0.00,VWS V14.01,2013-08-30 16:30:00,
2013-08-30 09:35:00,72.9,61.7,29.99,WNW,300,4.0,7.0,68,0.00,,SKC,0.00,VWS V14.01,2013-08-30 16:35:00,
2013-08-30 09:40:00,73.2,62.0,29.99,West,279,1.0,6.0,68,0.00,,SKC,0.00,VWS V14.01,2013-08-30 16:40:00,
2013-08-30 09:45:00,73.9,62.3,29.99,NW,323,0.0,6.0,67,0.00,,SKC,0.00,VWS V14.01,2013-08-30 16:45:00,
2013-08-30 09:55:00,76.3,62.8,29.99,SW,225,1.0,2.0,63,0.00,,SKC,0.00,VWS V14.01,2013-08-30 16:55:00,
2013-08-30 10:00:00,77.2,63.2,29.99,West,267,2.0,5.0,62,0.00,,SKC,0.00,VWS V14.01,2013-08-30 17:00:00,
2013-08-30 10:05:00,77.6,63.6,29.99,WNW,303,0.0,5.0,62,0.00,,SKC,0.00,VWS V14.01,2013-08-30 17:05:00,
2013-08-30 10:10:00,78.3,63.3,29.99,WNW,284,0.0,6.0,60,0.00,,SKC,0.00,VWS V14.01,2013-08-30 17:10:00,
2013-08-30 10:15:00,78.4,63.4,29.99,WNW,292,4.0,7.0,60,0.00,,SKC,0.00,VWS V14.01,2013-08-30 17:15:00,
2013-08-30 10:25:00,79.4,63.8,29.98,West,262,0.0,5.0,59,0.00,,SKC,0.00,VWS V14.01,2013-08-30 17:25:00,
2013-08-30 10:35:00,81.5,63.8,29.98,WNW,290,0.0,1.0,55,0.00,,SKC,0.00,VWS V14.01,2013-08-30 17:35:00,
2013-08-30 10:40:00,81.7,63.5,29.98,NW,315,0.0,5.0,54,0.00,,SKC,0.00,VWS V14.01,2013-08-30 17:40:00,
2013-08-30 10:50:00,82.4,63.6,29.98,WSW,238,0.0,5.0,53,0.00,,SKC,0.00,VWS V14.01,2013-08-30 17:50:00,
2013-08-30 10:55:00,83.7,63.7,29.98,West,267,4.0,5.0,51,0.00,,SKC,0.00,VWS V14.01,2013-08-30 17:55:00,
2013-08-30 11:00:00,84.0,63.9,29.98,NW,310,1.0,5.0,51,0.00,,SKC,0.00,VWS V14.01,2013-08-30 18:00:00,
2013-08-30 11:05:00,84.5,64.4,29.98,NW,315,0.0,4.0,51,0.00,,SKC,0.00,VWS V14.01,2013-08-30 18:05:00,
2013-08-30 11:10:00,84.9,63.6,29.98,WSW,247,2.0,7.0,49,0.00,,SKC,0.00,VWS V14.01,2013-08-30 18:10:00,
2013-08-30 11:15:00,85.2,63.9,29.98,West,265,0.0,2.0,49,0.00,,SKC,0.00,VWS V14.01,2013-08-30 18:15:00,
2013-08-30 11:20:00,85.8,63.9,29.98,WNW,294,0.0,5.0,48,0.00,,SKC,0.00,VWS V14.01,2013-08-30 18:20:00,
2013-08-30 11:30:00,85.8,64.4,29.98,South,172,0.0,6.0,49,0.00,,SKC,0.00,VWS V14.01,2013-08-30 18:30:00,
2013-08-30 11:40:00,86.8,64.2,29.98,West,268,4.0,6.0,47,0.00,,SKC,0.00,VWS V14.01,2013-08-30 18:40:00,
2013-08-30 11:45:00,87.7,64.4,29.98,West,267,2.0,5.0,46,0.00,,SKC,0.00,VWS V14.01,2013-08-30 18:45:00,
2013-08-30 11:50:00,88.4,64.4,29.97,WNW,290,3.0,4.0,45,0.00,,SKC,0.00,VWS V14.01,2013-08-30 18:50:00,
2013-08-30 12:00:00,88.8,64.1,29.97,WNW,295,1.0,6.0,44,0.00,,SKC,0.00,VWS V14.01,2013-08-30 19:00:00,
2013-08-30 12:05:00,89.3,63.9,29.97,WNW,295,0.0,1.0,43,0.00,,SKC,0.00,VWS V14.01,2013-08-30 19:05:00,
2013-08-30 12:10:00,89.8,65.0,29.96,NW,320,0.0,5.0,44,0.00,,SKC,0.00,VWS V14.01,2013-08-30 19:10:00,
2013-08-30 12:15:00,89.6,63.5,29.96,NNW,330,0.0,6.0,42,0.00,,SKC,0.00,VWS V14.01,2013-08-30 19:15:00,
2013-08-30 12:20:00,89.6,64.2,29.96,West,281,1.0,5.0,43,0.00,,SKC,0.00,VWS V14.01,2013-08-30 19:20:00,
2013-08-30 12:25:00,90.3,64.1,29.96,NW,317,2.0,7.0,42,0.00,,SKC,0.00,VWS V14.01,2013-08-30 19:25:00,
2013-08-30 12:30:00,90.6,64.4,29.96,West,280,2.0,5.0,42,0.00,,SKC,0.00,VWS V14.01,2013-08-30 19:30:00,
2013-08-30 12:35:00,91.3,65.0,29.95,NW,306,4.0,10.0,42,0.00,,SKC,0.00,VWS V14.01,2013-08-30 19:35:00,
2013-08-30 12:40:00,91.1,64.1,29.96,NW,309,2.0,7.0,41,0.00,,SKC,0.00,VWS V14.01,2013-08-30 19:40:00,
2013-08-30 12:45:00,90.7,64.5,29.95,West,267,0.0,7.0,42,0.00,,SKC,0.00,VWS V14.01,2013-08-30 19:45:00,
2013-08-30 12:50:00,91.2,64.2,29.95,WNW,284,0.0,5.0,41,0.00,,SKC,0.00,VWS V14.01,2013-08-30 19:50:00,
2013-08-30 13:00:00,92.5,64.7,29.94,NW,304,3.0,5.0,40,0.00,,SKC,0.00,VWS V14.01,2013-08-30 20:00:00,
2013-08-30 13:05:00,92.8,64.2,29.94,WSW,255,4.0,7.0,39,0.00,,SKC,0.00,VWS V14.01,2013-08-30 20:05:00,
2013-08-30 13:10:00,92.6,63.3,29.94,NW,312,7.0,7.0,38,0.00,,SKC,0.00,VWS V14.01,2013-08-30 20:10:00,
2013-08-30 13:15:00,92.7,64.1,29.94,NW,321,4.0,7.0,39,0.00,,SKC,0.00,VWS V14.01,2013-08-30 20:15:00,
2013-08-30 13:20:00,92.7,64.1,29.94,West,278,1.0,7.0,39,0.00,,SKC,0.00,VWS V14.01,2013-08-30 20:20:00,
2013-08-30 13:25:00,92.7,64.1,29.94,WNW,283,0.0,7.0,39,0.00,,SKC,0.00,VWS V14.01,2013-08-30 20:25:00,
2013-08-30 13:30:00,92.9,63.6,29.94,NW,311,2.0,7.0,38,0.00,,SKC,0.00,VWS V14.01,2013-08-30 20:30:00,
2013-08-30 13:35:00,93.0,63.7,29.93,West,267,7.0,8.0,38,0.00,,SKC,0.00,VWS V14.01,2013-08-30 20:35:00,
2013-08-30 13:40:00,92.9,62.8,29.93,NW,304,1.0,7.0,37,0.00,,SKC,0.00,VWS V14.01,2013-08-30 20:40:00,
2013-08-30 13:50:00,92.6,62.5,29.93,WNW,286,2.0,8.0,37,0.00,,SKC,0.00,VWS V14.01,2013-08-30 20:50:00,
2013-08-30 13:55:00,93.3,63.2,29.93,WNW,299,4.0,8.0,37,0.00,,SKC,0.00,VWS V14.01,2013-08-30 20:55:00,
2013-08-30 14:00:00,93.5,64.1,29.92,WNW,299,4.0,7.0,38,0.00,,SKC,0.00,VWS V14.01,2013-08-30 21:00:00,
2013-08-30 14:05:00,94.4,64.1,29.92,NW,304,0.0,7.0,37,0.00,,SKC,0.00,VWS V14.01,2013-08-30 21:05:00,
2013-08-30 14:10:00,94.8,65.3,29.92,NW,319,5.0,6.0,38,0.00,,SKC,0.00,VWS V14.01,2013-08-30 21:10:00,
2013-08-30 14:15:00,94.4,64.1,29.92,NW,306,6.0,9.0,37,0.00,,SKC,0.00,VWS V14.01,2013-08-30 21:15:00,
2013-08-30 14:20:00,94.0,64.6,29.92,WSW,257,0.0,7.0,38,0.00,,SKC,0.00,VWS V14.01,2013-08-30 21:20:00,
2013-08-30 14:25:00,93.5,64.1,29.92,NNW,331,5.0,10.0,38,0.00,,SKC,0.00,VWS V14.01,2013-08-30 21:25:00,
2013-08-30 14:30:00,93.1,63.8,29.92,NNW,328,4.0,8.0,38,0.00,,SKC,0.00,VWS V14.01,2013-08-30 21:30:00,
2013-08-30 14:35:00,93.2,64.6,29.91,WNW,296,1.0,7.0,39,0.00,,SKC,0.00,VWS V14.01,2013-08-30 21:35:00,
2013-08-30 14:40:00,93.2,63.8,29.91,WNW,287,6.0,8.0,38,0.00,,SKC,0.00,VWS V14.01,2013-08-30 21:40:00,
2013-08-30 14:45:00,93.1,63.8,29.91,West,269,1.0,8.0,38,0.00,,SKC,0.00,VWS V14.01,2013-08-30 21:45:00,
2013-08-30 14:50:00,92.8,64.2,29.90,NNW,329,0.0,7.0,39,0.00,,SKC,0.00,VWS V14.01,2013-08-30 21:50:00,
2013-08-30 14:55:00,93.2,63.1,29.90,NW,310,5.0,10.0,37,0.00,,SKC,0.00,VWS V14.01,2013-08-30 21:55:00,
2013-08-30 15:00:00,93.1,63.0,29.90,NNW,333,4.0,7.0,37,0.00,,SKC,0.00,VWS V14.01,2013-08-30 22:00:00,
2013-08-30 15:10:00,93.2,63.1,29.90,NNW,329,6.0,7.0,37,0.00,,SKC,0.00,VWS V14.01,2013-08-30 22:10:00,
2013-08-30 15:15:00,93.3,63.2,29.90,NNW,330,0.0,9.0,37,0.00,,SKC,0.00,VWS V14.01,2013-08-30 22:15:00,
2013-08-30 15:20:00,93.5,62.6,29.90,North,360,5.0,8.0,36,0.00,,SKC,0.00,VWS V14.01,2013-08-30 22:20:00,
2013-08-30 15:25:00,93.9,62.9,29.89,West,281,0.0,7.0,36,0.00,,SKC,0.00,VWS V14.01,2013-08-30 22:25:00,
2013-08-30 15:30:00,94.3,62.5,29.89,NW,304,4.0,9.0,35,0.00,,SKC,0.00,VWS V14.01,2013-08-30 22:30:00,
2013-08-30 15:35:00,94.3,60.8,29.89,WNW,303,6.0,8.0,33,0.00,,SKC,0.00,VWS V14.01,2013-08-30 22:35:00,
2013-08-30 15:40:00,94.1,60.6,29.89,WNW,288,6.0,8.0,33,0.00,,SKC,0.00,VWS V14.01,2013-08-30 22:40:00,
2013-08-30 15:45:00,94.2,61.6,29.88,WNW,290,2.0,7.0,34,0.00,,SKC,0.00,VWS V14.01,2013-08-30 22:45:00,
2013-08-30 15:50:00,94.8,60.4,29.88,NW,311,2.0,8.0,32,0.00,,SKC,0.00,VWS V14.01,2013-08-30 22:50:00,
2013-08-30 15:55:00,94.9,60.5,29.88,WNW,291,7.0,8.0,32,0.00,,SKC,0.00,VWS V14.01,2013-08-30 22:55:00,
2013-08-30 16:00:00,94.8,59.5,29.88,SSW,207,0.0,11.0,31,0.00,,SKC,0.00,VWS V14.01,2013-08-30 23:00:00,
2013-08-30 16:05:00,94.9,60.5,29.88,NNW,342,4.0,9.0,32,0.00,,SKC,0.00,VWS V14.01,2013-08-30 23:05:00,
2013-08-30 16:10:00,94.6,59.3,29.88,NW,310,4.0,9.0,31,0.00,,SKC,0.00,VWS V14.01,2013-08-30 23:10:00,
2013-08-30 16:15:00,94.2,58.0,29.88,WSW,245,5.0,9.0,30,0.00,,SKC,0.00,VWS V14.01,2013-08-30 23:15:00,
2013-08-30 16:20:00,93.9,57.8,29.87,West,278,5.0,9.0,30,0.00,,SKC,0.00,VWS V14.01,2013-08-30 23:20:00,
2013-08-30 16:25:00,93.7,57.6,29.87,West,267,4.0,10.0,30,0.00,,SKC,0.00,VWS V14.01,2013-08-30 23:25:00,
2013-08-30 16:30:00,93.5,59.2,29.87,WSW,256,6.0,11.0,32,0.00,,SKC,0.00,VWS V14.01,2013-08-30 23:30:00,
2013-08-30 16:35:00,93.3,59.1,29.87,NW,313,6.0,12.0,32,0.00,,SKC,0.00,VWS V14.01,2013-08-30 23:35:00,
2013-08-30 16:40:00,93.2,60.7,29.87,NW,325,2.0,9.0,34,0.00,,SKC,0.00,VWS V14.01,2013-08-30 23:40:00,
2013-08-30 16:45:00,93.0,61.3,29.87,NW,306,7.0,9.0,35,0.00,,SKC,0.00,VWS V14.01,2013-08-30 23:45:00,
2013-08-30 16:50:00,92.9,61.2,29.87,NNW,327,3.0,9.0,35,0.00,,SKC,0.00,VWS V14.01,2013-08-30 23:50:00,
2013-08-30 16:55:00,92.5,62.5,29.87,NW,304,5.0,9.0,37,0.00,,SKC,0.00,VWS V14.01,2013-08-30 23:55:00,
2013-08-30 17:00:00,92.1,62.1,29.87,WNW,294,6.0,8.0,37,0.00,,SKC,0.00,VWS V14.01,2013-08-31 00:00:00,
2013-08-30 17:05:00,92.0,62.8,29.86,NNW,334,4.0,7.0,38,0.00,,SKC,0.00,VWS V14.01,2013-08-31 00:05:00,
2013-08-30 17:10:00,91.7,62.5,29.86,West,266,4.0,10.0,38,0.00,,SKC,0.00,VWS V14.01,2013-08-31 00:10:00,
2013-08-30 17:15:00,91.4,62.2,29.86,NNE,16,4.0,10.0,38,0.00,,SKC,0.00,VWS V14.01,2013-08-31 00:15:00,
2013-08-30 17:20:00,91.3,62.9,29.86,NNW,327,5.0,9.0,39,0.00,,SKC,0.00,VWS V14.01,2013-08-31 00:20:00,
2013-08-30 17:25:00,91.2,63.5,29.86,SW,221,4.0,9.0,40,0.00,,SKC,0.00,VWS V14.01,2013-08-31 00:25:00,
2013-08-30 17:30:00,91.1,63.4,29.86,NNE,13,1.0,10.0,40,0.00,,SKC,0.00,VWS V14.01,2013-08-31 00:30:00,
2013-08-30 17:35:00,91.1,62.7,29.86,NW,309,2.0,6.0,39,0.00,,SKC,0.00,VWS V14.01,2013-08-31 00:35:00,
2013-08-30 17:40:00,91.2,62.8,29.86,NW,306,0.0,9.0,39,0.00,,SKC,0.00,VWS V14.01,2013-08-31 00:40:00,
2013-08-30 17:45:00,91.3,62.9,29.86,WNW,290,3.0,7.0,39,0.00,,SKC,0.00,VWS V14.01,2013-08-31 00:45:00,
2013-08-30 17:50:00,91.5,63.1,29.86,WNW,294,2.0,9.0,39,0.00,,SKC,0.00,VWS V14.01,2013-08-31 00:50:00,
2013-08-30 17:55:00,91.8,62.6,29.86,WSW,244,4.0,5.0,38,0.00,,SKC,0.00,VWS V14.01,2013-08-31 00:55:00,
2013-08-30 18:00:00,91.8,61.8,29.86,WSW,247,0.0,8.0,37,0.00,,SKC,0.00,VWS V14.01,2013-08-31 01:00:00,
2013-08-30 18:05:00,91.5,61.6,29.86,SW,229,6.0,9.0,37,0.00,,SKC,0.00,VWS V14.01,2013-08-31 01:05:00,
2013-08-30 18:10:00,91.1,61.2,29.86,WNW,288,1.0,9.0,37,0.00,,SKC,0.00,VWS V14.01,2013-08-31 01:10:00,
2013-08-30 18:15:00,90.9,61.0,29.86,West,279,4.0,8.0,37,0.00,,SKC,0.00,VWS V14.01,2013-08-31 01:15:00,
2013-08-30 18:25:00,89.9,60.9,29.86,NW,315,7.0,7.0,38,0.00,,SKC,0.00,VWS V14.01,2013-08-31 01:25:00,
2013-08-30 18:30:00,89.4,61.2,29.86,West,273,4.0,9.0,39,0.00,,SKC,0.00,VWS V14.01,2013-08-31 01:30:00,
2013-08-30 18:35:00,89.3,61.1,29.86,WNW,282,4.0,7.0,39,0.00,,SKC,0.00,VWS V14.01,2013-08-31 01:35:00,
2013-08-30 18:40:00,89.1,60.9,29.86,WSW,245,0.0,5.0,39,0.00,,SKC,0.00,VWS V14.01,2013-08-31 01:40:00,
2013-08-30 18:45:00,88.9,60.8,29.86,WSW,240,1.0,5.0,39,0.00,,SKC,0.00,VWS V14.01,2013-08-31 01:45:00,
2013-08-30 18:50:00,88.8,62.1,29.86,SW,223,0.0,2.0,41,0.00,,SKC,0.00,VWS V14.01,2013-08-31 01:50:00,
2013-08-30 18:55:00,88.5,61.1,29.85,West,261,2.0,4.0,40,0.00,,SKC,0.00,VWS V14.01,2013-08-31 01:55:00,
2013-08-30 19:00:00,88.0,61.4,29.85,WSW,250,0.0,5.0,41,0.00,,SKC,0.00,VWS V14.01,2013-08-31 02:00:00,
2013-08-30 19:05:00,87.6,61.0,29.85,SSW,205,0.0,1.0,41,0.00,,SKC,0.00,VWS V14.01,2013-08-31 02:05:00,
2013-08-30 19:10:00,87.1,61.2,29.85,West,270,1.0,4.0,42,0.00,,SKC,0.00,VWS V14.01,2013-08-31 02:10:00,
2013-08-30 19:15:00,86.5,60.7,29.86,West,269,0.0,2.0,42,0.00,,SKC,0.00,VWS V14.01,2013-08-31 02:15:00,
2013-08-30 19:20:00,86.2,59.1,29.86,WSW,250,0.0,6.0,40,0.00,,SKC,0.00,VWS V14.01,2013-08-31 02:20:00,
2013-08-30 19:25:00,85.8,58.7,29.86,WSW,250,0.0,0.0,40,0.00,,SKC,0.00,VWS V14.01,2013-08-31 02:25:00,
2013-08-30 19:30:00,85.5,59.1,29.86,WSW,246,2.0,4.0,41,0.00,,SKC,0.00,VWS V14.01,2013-08-31 02:30:00,
2013-08-30 19:35:00,85.1,58.8,29.86,WSW,245,0.0,2.0,41,0.00,,SKC,0.00,VWS V14.01,2013-08-31 02:35:00,
2013-08-30 19:40:00,84.5,58.2,29.86,SSW,207,0.0,2.0,41,0.00,,SKC,0.00,VWS V14.01,2013-08-31 02:40:00,
2013-08-30 19:45:00,84.1,57.9,29.86,SSW,207,0.0,4.0,41,0.00,,SKC,0.00,VWS V14.01,2013-08-31 02:45:00,
2013-08-30 19:50:00,83.7,58.2,29.87,SSW,207,0.0,0.0,42,0.00,,SKC,0.00,VWS V14.01,2013-08-31 02:50:00,
2013-08-30 19:55:00,83.2,57.8,29.87,SSW,207,0.0,0.0,42,0.00,,SKC,0.00,VWS V14.01,2013-08-31 02:55:00,
2013-08-30 20:00:00,82.7,57.3,29.87,SSW,207,0.0,4.0,42,0.00,,SKC,0.00,VWS V14.01,2013-08-31 03:00:00,
2013-08-30 20:05:00,82.2,56.8,29.86,SSW,207,0.0,2.0,42,0.00,,SKC,0.00,VWS V14.01,2013-08-31 03:05:00,
2013-08-30 20:10:00,81.8,57.1,29.87,SSW,205,0.0,3.0,43,0.00,,SKC,0.00,VWS V14.01,2013-08-31 03:10:00,
2013-08-30 20:15:00,81.4,56.8,29.87,SSW,207,0.0,2.0,43,0.00,,SKC,0.00,VWS V14.01,2013-08-31 03:15:00,
2013-08-30 20:20:00,80.9,57.0,29.87,SSW,207,1.0,2.0,44,0.00,,SKC,0.00,VWS V14.01,2013-08-31 03:20:00,
2013-08-30 20:25:00,80.4,57.8,29.87,SSW,207,0.0,2.0,46,0.00,,SKC,0.00,VWS V14.01,2013-08-31 03:25:00,
2013-08-30 20:30:00,80.0,58.0,29.87,SSW,207,2.0,2.0,47,0.00,,SKC,0.00,VWS V14.01,2013-08-31 03:30:00,
2013-08-30 20:35:00,79.6,58.2,29.88,SSW,207,0.0,2.0,48,0.00,,SKC,0.00,VWS V14.01,2013-08-31 03:35:00,
2013-08-30 20:40:00,79.3,57.3,29.88,SSW,207,0.0,1.0,47,0.00,,SKC,0.00,VWS V14.01,2013-08-31 03:40:00,
2013-08-30 20:45:00,78.8,57.5,29.88,SSW,207,0.0,1.0,48,0.00,,SKC,0.00,VWS V14.01,2013-08-31 03:45:00,
2013-08-30 20:50:00,78.5,57.2,29.88,West,280,0.0,2.0,48,0.00,,SKC,0.00,VWS V14.01,2013-08-31 03:50:00,
2013-08-30 20:55:00,78.1,57.4,29.88,West,280,0.0,2.0,49,0.00,,SKC,0.00,VWS V14.01,2013-08-31 03:55:00,
2013-08-30 21:00:00,77.7,57.0,29.88,SW,236,0.0,2.0,49,0.00,,SKC,0.00,VWS V14.01,2013-08-31 04:00:00,
2013-08-30 21:05:00,77.5,56.9,29.88,SW,236,0.0,1.0,49,0.00,,SKC,0.00,VWS V14.01,2013-08-31 04:05:00,
2013-08-30 21:10:00,77.3,56.7,29.88,SW,236,0.0,0.0,49,0.00,,SKC,0.00,VWS V14.01,2013-08-31 04:10:00,
2013-08-30 21:15:00,77.1,56.5,29.88,SW,236,0.0,0.0,49,0.00,,SKC,0.00,VWS V14.01,2013-08-31 04:15:00,
2013-08-30 21:20:00,76.8,55.7,29.88,SW,236,0.0,0.0,48,0.00,,SKC,0.00,VWS V14.01,2013-08-31 04:20:00,
2013-08-30 21:25:00,76.5,55.9,29.88,SW,236,0.0,0.0,49,0.00,,SKC,0.00,VWS V14.01,2013-08-31 04:25:00,
2013-08-30 21:30:00,76.3,55.8,29.88,SW,236,0.0,0.0,49,0.00,,SKC,0.00,VWS V14.01,2013-08-31 04:30:00,
2013-08-30 21:35:00,76.0,56.0,29.88,SW,236,0.0,0.0,50,0.00,,SKC,0.00,VWS V14.01,2013-08-31 04:35:00,
2013-08-30 21:40:00,75.5,55.6,29.88,SW,236,0.0,0.0,50,0.00,,SKC,0.00,VWS V14.01,2013-08-31 04:40:00,
2013-08-30 21:45:00,75.1,55.8,29.88,SW,236,0.0,0.0,51,0.00,,SKC,0.00,VWS V14.01,2013-08-31 04:45:00,
2013-08-30 21:50:00,74.7,55.4,29.88,SW,236,0.0,0.0,51,0.00,,SKC,0.00,VWS V14.01,2013-08-31 04:50:00,
2013-08-30 21:55:00,74.2,55.5,29.89,SW,236,0.0,0.0,52,0.00,,SKC,0.00,VWS V14.01,2013-08-31 04:55:00,
2013-08-30 22:00:00,73.8,55.6,29.89,SW,236,0.0,0.0,53,0.00,,SKC,0.00,VWS V14.01,2013-08-31 05:00:00,
2013-08-30 22:05:00,73.3,55.2,29.89,SW,236,0.0,0.0,53,0.00,,SKC,0.00,VWS V14.01,2013-08-31 05:05:00,
2013-08-30 22:10:00,72.8,54.7,29.89,SW,236,0.0,0.0,53,0.00,,SKC,0.00,VWS V14.01,2013-08-31 05:10:00,
2013-08-30 22:15:00,72.2,54.7,29.89,SW,236,0.0,0.0,54,0.00,,SKC,0.00,VWS V14.01,2013-08-31 05:15:00,
2013-08-30 22:20:00,71.8,54.3,29.88,SW,236,0.0,0.0,54,0.00,,SKC,0.00,VWS V14.01,2013-08-31 05:20:00,
2013-08-30 22:25:00,71.3,54.3,29.88,SW,236,0.0,0.0,55,0.00,,SKC,0.00,VWS V14.01,2013-08-31 05:25:00,
2013-08-30 22:30:00,71.1,54.1,29.88,SW,236,0.0,0.0,55,0.00,,SKC,0.00,VWS V14.01,2013-08-31 05:30:00,
2013-08-30 22:35:00,70.8,53.8,29.88,SW,236,0.0,0.0,55,0.00,,SKC,0.00,VWS V14.01,2013-08-31 05:35:00,
2013-08-30 22:40:00,70.5,53.6,29.88,SW,236,0.0,0.0,55,0.00,,SKC,0.00,VWS V14.01,2013-08-31 05:40:00,
2013-08-30 22:45:00,70.3,53.4,29.88,SW,236,0.0,0.0,55,0.00,,SKC,0.00,VWS V14.01,2013-08-31 05:45:00,
2013-08-30 22:50:00,69.9,53.5,29.88,SW,236,0.0,0.0,56,0.00,,SKC,0.00,VWS V14.01,2013-08-31 05:50:00,
2013-08-30 22:55:00,69.6,52.7,29.88,SW,236,0.0,0.0,55,0.00,,SKC,0.00,VWS V14.01,2013-08-31 05:55:00,
2013-08-30 23:00:00,69.3,52.5,29.88,SW,236,0.0,0.0,55,0.00,,SKC,0.00,VWS V14.01,2013-08-31 06:00:00,
2013-08-30 23:05:00,69.1,52.8,29.88,SW,236,0.0,0.0,56,0.00,,SKC,0.00,VWS V14.01,2013-08-31 06:05:00,
2013-08-30 23:10:00,69.0,53.2,29.88,SW,236,0.0,0.0,57,0.00,,SKC,0.00,VWS V14.01,2013-08-31 06:10:00,
2013-08-30 23:15:00,68.8,52.5,29.88,SW,236,0.0,0.0,56,0.00,,SKC,0.00,VWS V14.01,2013-08-31 06:15:00,
2013-08-30 23:20:00,68.7,52.9,29.88,SW,236,0.0,0.0,57,0.00,,SKC,0.00,VWS V14.01,2013-08-31 06:20:00,
2013-08-30 23:25:00,68.5,53.2,29.88,SW,236,0.0,0.0,58,0.00,,SKC,0.00,VWS V14.01,2013-08-31 06:25:00,
2013-08-30 23:30:00,68.3,53.0,29.89,SW,236,0.0,0.0,58,0.00,,SKC,0.00,VWS V14.01,2013-08-31 06:30:00,
2013-08-30 23:35:00,68.2,53.3,29.89,SW,236,0.0,0.0,59,0.00,,SKC,0.00,VWS V14.01,2013-08-31 06:35:00,
2013-08-30 23:40:00,68.1,54.2,29.89,SW,236,0.0,0.0,61,0.00,,SKC,0.00,VWS V14.01,2013-08-31 06:40:00,
2013-08-30 23:45:00,68.0,54.1,29.89,SW,236,0.0,0.0,61,0.00,,SKC,0.00,VWS V14.01,2013-08-31 06:45:00,
2013-08-30 23:50:00,67.9,54.0,29.89,SW,236,0.0,0.0,61,0.00,,SKC,0.00,VWS V14.01,2013-08-31 06:50:00,
2013-08-30 23:55:00,67.7,54.2,29.89,SW,236,0.0,0.0,62,0.00,,SKC,0.00,VWS V14.01,2013-08-31 06:55:00,